Powrót do katalogu

FENGYUN 1C DEB

AktywnyPO
NORAD 29850·DEBRIS·🇨🇳 China

Wystrzelony May 10, 1999 z Taiyuan Satellite Launch Center

Loading…

Następne Przeloty (najbliższe 24 godziny)

TLE

ŚwieżeSource: Space-Track

Epoka: Sep 14, 2026, 23:08 UTC

1 29850U 99025EU  26257.96425257  .00000670  00000-0  45234-3 0  9995
2 29850  98.1144 158.9607 0104937 223.2233 152.7582 14.00712163998865

Śledź FENGYUN 1C DEB w czasie rzeczywistym z AllMySat

Download on the App Store